User: anonymous   Login
Location: Unspecified
(0.0000°N, 0.0000°E)
Time: 20:01:27
(UTC+02:00)
Language:

ARIANE 5 R/B - Orbit

View from above orbital plane
View from above orbital plane
View from above satellite
View from above satellite

Ground track
Ground track

The orbit data is extracted from the following two-line orbital elements,

1 28787U 05028B   16150.52928447 -.00000078  00000-0  86945-5 0  9994
2 28787   6.6241 185.8762 7178035 269.0760 346.5763  2.26568352 89416
Epoch (UTC): 29 May 2016 12:42:10
Eccentricity: 0.7178035
inclination: 6.6241°
perigee height: 532 km
apogee height: 35685 km
right ascension of ascending node: 185.8762°
argument of perigee: 269.0760°
revolutions per day: 2.26568352
mean anomaly at epoch: 346.5763°
orbit number at epoch: 8941

The dashed part of the orbit path shows where the satellite is in the earth's shadow,  

DLR